Weather History for Willmar, MN

Change the Weather History Date:

Monday, April 9, 2012

  Actual Average (KLJF) Record (KLJF)
Temperature  
Mean Temperature 37 °F -  
Max Temperature 44 °F 51 °F 80 °F (1977)
Min Temperature 28 °F 30 °F 12 °F (1997)
Degree Days  
Heating Degree Days 28    
Moisture  
Dew Point 20 °F    
Average Humidity 50    
Maximum Humidity 69    
Minimum Humidity 37    
Precipitation  
Precipitation 0.00 in - - ()
Sea Level Pressure  
Sea Level Pressure 30.19 in    
Wind  
Wind Speed 13 mph (NW)    
Max Wind Speed 29 mph    
Max Gust Speed 46 mph    
Visibility 10 miles    
Events      
Averages and records for this station are not official NWS values.
T = Trace of Precipitation, MM = Missing Value Source: NWS Daily Summary

Daily Weather History Graph

Daily Weather History Graph

Search for Another Location

Airport:

Trip Planner

Search our weather history database for the weather conditions in past years. The results will help you decide how hot, cold, wet, or windy it might be!

Date:

Astronomy

Apr. 09, 2012 Rise Set
Actual Time 6:45 AM CDT 7:59 PM CDT
Civil Twilight 6:15 AM CDT 8:29 PM CDT
Nautical Twilight 5:38 AM CDT 9:06 PM CDT
Astronomical Twilight 5:00 AM CDT 9:44 PM CDT
Moon No Moon Rise 8:23 AM CDT (4/9)
Length of Visible Light 14h 14m
Length of Day
13h 13m
Waning Gibbous, 88% of the Moon is Illuminated
Apr 9
Waning Gibbous
Apr 13
Last Quarter
Apr 21
New
Apr 29
First Quarter
May 5
Full

Hourly Weather History & Observations

Time (CDT) Temp. Windchill Dew Point Humidity Pressure Visibility Wind Dir Wind Speed Gust Speed Precip Events Conditions
12:15 AM 41.0 °F 35.8 °F 19.4 °F 42% 30.14 in 10.0 mi West 8.1 mph - N/A   Clear
12:35 AM 39.2 °F 33.0 °F 19.4 °F 45% 30.14 in 10.0 mi West 9.2 mph - N/A   Clear
12:55 AM 41.0 °F 34.7 °F 21.2 °F 45% 30.14 in 10.0 mi WNW 10.4 mph - N/A   Clear
1:15 AM 41.0 °F 34.7 °F 21.2 °F 45% 30.14 in 10.0 mi WNW 10.4 mph - N/A   Clear
1:34 AM 41.0 °F 35.8 °F 21.2 °F 45% 30.15 in 10.0 mi WNW 8.1 mph - N/A   Clear
1:55 AM 39.2 °F 32.5 °F 23.0 °F 52% 30.15 in 10.0 mi WNW 10.4 mph - N/A   Clear
2:15 AM 39.2 °F 33.0 °F 23.0 °F 52% 30.15 in 10.0 mi NW 9.2 mph - N/A   Clear
2:35 AM 37.4 °F 31.4 °F 23.0 °F 56% 30.15 in 10.0 mi WNW 8.1 mph - N/A   Clear
2:55 AM 37.4 °F 31.4 °F 23.0 °F 56% 30.15 in 10.0 mi WNW 8.1 mph - N/A   Clear
3:15 AM 37.4 °F 31.4 °F 23.0 °F 56% 30.15 in 10.0 mi NW 8.1 mph - N/A   Clear
3:34 AM 35.6 °F 28.6 °F 21.2 °F 56% 30.16 in 10.0 mi NW 9.2 mph - N/A   Clear
3:55 AM 37.4 °F 31.4 °F 21.2 °F 52% 30.16 in 10.0 mi NW 8.1 mph - N/A   Clear
4:15 AM 37.4 °F 30.8 °F 21.2 °F 52% 30.16 in 10.0 mi NW 9.2 mph - N/A   Clear
4:35 AM 33.8 °F 27.0 °F 21.2 °F 60% 30.16 in 10.0 mi NW 8.1 mph - N/A   Clear
4:55 AM 35.6 °F 29.9 °F 21.2 °F 56% 30.16 in 10.0 mi WNW 6.9 mph - N/A   Clear
5:15 AM 33.8 °F 28.6 °F 21.2 °F 60% 30.16 in 10.0 mi NW 5.8 mph - N/A   Clear
5:35 AM 30.2 °F 25.4 °F 21.2 °F 69% 30.16 in 10.0 mi WNW 4.6 mph - N/A   Clear
5:55 AM 30.2 °F 25.4 °F 19.4 °F 64% 30.17 in 10.0 mi West 4.6 mph - N/A   Clear
6:15 AM 30.2 °F 25.4 °F 19.4 °F 64% 30.17 in 10.0 mi West 4.6 mph - N/A   Clear
6:35 AM 30.2 °F 23.4 °F 19.4 °F 64% 30.17 in 10.0 mi West 6.9 mph - N/A   Clear
6:55 AM 30.2 °F 21.9 °F 21.2 °F 69% 30.18 in 10.0 mi WNW 9.2 mph - N/A   Clear
7:35 AM 32.0 °F 24.2 °F 21.2 °F 64% 30.20 in 10.0 mi WNW 9.2 mph - N/A   Clear
7:55 AM 32.0 °F 23.0 °F 21.2 °F 64% 30.20 in 10.0 mi NW 11.5 mph - N/A   Clear
8:15 AM 33.8 °F 23.9 °F 23.0 °F 65% 30.20 in 10.0 mi NW 15.0 mph - N/A   Clear
8:35 AM 33.8 °F 23.2 °F 21.2 °F 60% 30.20 in 10.0 mi NW 17.3 mph 24.2 mph N/A   Clear
8:55 AM 35.6 °F 24.5 °F 21.2 °F 56% 30.20 in 10.0 mi NW 20.7 mph 26.5 mph N/A   Clear
9:15 AM 35.6 °F 23.7 °F 21.2 °F 56% 30.20 in 10.0 mi NW 24.2 mph 27.6 mph N/A   Clear
9:35 AM 37.4 °F 25.9 °F 21.2 °F 52% 30.21 in 10.0 mi NW 25.3 mph 31.1 mph N/A   Clear
9:55 AM 37.4 °F 25.6 °F 21.2 °F 52% 30.21 in 10.0 mi NW 26.5 mph 32.2 mph N/A   Clear
10:15 AM 37.4 °F 25.6 °F 21.2 °F 52% 30.21 in 10.0 mi NNW 26.5 mph 31.1 mph N/A   Clear
10:35 AM 39.2 °F 28.3 °F 21.2 °F 49% 30.21 in 10.0 mi NW 25.3 mph 31.1 mph N/A   Clear
10:55 AM 39.2 °F 29.0 °F 21.2 °F 49% 30.21 in 10.0 mi WNW 21.9 mph 29.9 mph N/A   Clear
11:15 AM 39.2 °F 28.3 °F 21.2 °F 49% 30.21 in 10.0 mi NW 25.3 mph 31.1 mph N/A   Clear
11:35 AM 39.2 °F 29.6 °F 21.2 °F 49% 30.22 in 10.0 mi NW 19.6 mph 26.5 mph N/A   Scattered Clouds
11:54 AM 41.0 °F 31.4 °F 21.2 °F 45% 30.21 in 10.0 mi WNW 21.9 mph 31.1 mph N/A   Scattered Clouds
12:15 PM 41.0 °F 31.1 °F 21.2 °F 45% 30.22 in 10.0 mi WNW 23.0 mph 33.4 mph N/A   Scattered Clouds
12:35 PM 42.8 °F 33.5 °F 21.2 °F 42% 30.21 in 10.0 mi NW 23.0 mph 28.8 mph N/A   Scattered Clouds
12:54 PM 42.8 °F 33.8 °F 21.2 °F 42% 30.21 in 10.0 mi WNW 21.9 mph 31.1 mph N/A   Scattered Clouds
1:15 PM 44.6 °F - 21.2 °F 39% 30.20 in 10.0 mi North - - N/A   Scattered Clouds
1:35 PM 42.8 °F - 21.2 °F 42% 30.20 in 10.0 mi Calm Calm - N/A   Scattered Clouds
1:54 PM 44.6 °F 35.1 °F 21.2 °F 39% 30.20 in 10.0 mi NNW 27.6 mph 31.1 mph N/A   Scattered Clouds
2:15 PM 44.6 °F 35.7 °F 21.2 °F 39% 30.20 in 10.0 mi NW 24.2 mph 31.1 mph N/A   Scattered Clouds
2:35 PM 44.6 °F 35.5 °F 21.2 °F 39% 30.21 in 10.0 mi NW 25.3 mph 28.8 mph N/A   Scattered Clouds
2:54 PM 44.6 °F 34.9 °F 19.4 °F 37% 30.20 in 10.0 mi NW 28.8 mph 35.7 mph N/A   Clear
3:15 PM 44.6 °F 35.7 °F 19.4 °F 37% 30.20 in 10.0 mi NW 24.2 mph 33.4 mph N/A   Clear
3:34 PM 44.6 °F 35.9 °F 19.4 °F 37% 30.20 in 10.0 mi NW 23.0 mph 31.1 mph N/A   Clear
4:15 PM 44.6 °F 35.1 °F 19.4 °F 37% 30.19 in 10.0 mi NNW 27.6 mph 35.7 mph N/A   Clear
4:34 PM 44.6 °F 35.5 °F 19.4 °F 37% 30.19 in 10.0 mi NW 25.3 mph 46.0 mph N/A   Scattered Clouds
4:55 PM 44.6 °F 35.5 °F 19.4 °F 37% 30.18 in 10.0 mi NW 25.3 mph 33.4 mph N/A   Scattered Clouds
5:15 PM 44.6 °F 35.3 °F 19.4 °F 37% 30.18 in 10.0 mi NW 26.5 mph 32.2 mph N/A   Clear
5:34 PM 44.6 °F 35.3 °F 19.4 °F 37% 30.18 in 10.0 mi NW 26.5 mph 33.4 mph N/A   Clear
5:55 PM 44.6 °F 36.6 °F 19.4 °F 37% 30.19 in 10.0 mi NW 19.6 mph - N/A   Clear
6:15 PM 44.6 °F 35.3 °F 19.4 °F 37% 30.18 in 10.0 mi NNW 26.5 mph 31.1 mph N/A   Clear
6:34 PM 44.6 °F 36.1 °F 19.4 °F 37% 30.18 in 10.0 mi NW 21.9 mph 28.8 mph N/A   Clear
6:55 PM 42.8 °F 33.8 °F 19.4 °F 39% 30.18 in 10.0 mi NW 21.9 mph 28.8 mph N/A   Clear
7:14 PM 42.8 °F 34.0 °F 19.4 °F 39% 30.18 in 10.0 mi NW 20.7 mph 28.8 mph N/A   Clear
7:35 PM 42.8 °F 34.5 °F 19.4 °F 39% 30.18 in 10.0 mi NW 18.4 mph 27.6 mph N/A   Clear
7:55 PM 42.8 °F 34.5 °F 19.4 °F 39% 30.18 in 10.0 mi NW 18.4 mph - N/A   Clear
8:35 PM 37.4 °F 30.3 °F 19.4 °F 48% 30.19 in 10.0 mi NW 10.4 mph - N/A   Clear
8:55 PM 35.6 °F 29.9 °F 19.4 °F 52% 30.20 in 10.0 mi NW 6.9 mph - N/A   Clear
9:14 PM 33.8 °F 27.7 °F 17.6 °F 52% 30.20 in 10.0 mi NW 6.9 mph - N/A   Clear
9:35 PM 33.8 °F 28.6 °F 19.4 °F 56% 30.21 in 10.0 mi NNW 5.8 mph - N/A   Clear
9:55 PM 35.6 °F 31.7 °F 19.4 °F 52% 30.20 in 10.0 mi NW 4.6 mph - N/A   Clear
10:14 PM 33.8 °F 30.8 °F 17.6 °F 52% 30.21 in 10.0 mi NW 3.5 mph - N/A   Clear
10:35 PM 30.2 °F 26.7 °F 17.6 °F 60% 30.21 in 10.0 mi WNW 3.5 mph - N/A   Clear
10:55 PM 30.2 °F 26.7 °F 17.6 °F 60% 30.21 in 10.0 mi WNW 3.5 mph - N/A   Clear
11:15 PM 32.0 °F 28.7 °F 17.6 °F 55% 30.21 in 10.0 mi West 3.5 mph - N/A   Clear
11:35 PM 30.2 °F 26.7 °F 17.6 °F 60% 30.21 in 10.0 mi West 3.5 mph - N/A   Clear
11:54 PM 28.4 °F - 17.6 °F 64% 30.21 in 10.0 mi Calm Calm - N/A   Clear